User: anonymous   Login
Location: Blue Mountain Vista Observatory
(40.6992°N, 75.9422°W)
Time: 11:02:57
(UTC-05:00)
Language:

Cosmos 1222 Rocket - Orbit

View from above orbital plane
View from above orbital plane
View from above satellite
View from above satellite

Ground track
Ground track

The orbit data is extracted from the following two-line orbital elements,

1 12072U 80093B   15064.75695574  .00180290  10470-4  63450-3 0  9993
2 12072 081.1727 358.8454 0010884 115.4580 244.7815 15.88958045887076
Epoch (UTC): 05 March 2015 18:10:00
Eccentricity: 0.0010884
inclination: 81.1727°
perigee height: 298 km
apogee height: 312 km
right ascension of ascending node: 358.8454°
argument of perigee: 115.4580°
revolutions per day: 15.88958045
mean anomaly at epoch: 244.7815°
orbit number at epoch: 88707

The dashed part of the orbit path shows where the satellite is in the earth's shadow,  

DLR